Location: Buch
(49.7331°N, 12.1098°E)
Time: 22:59:37
(UTC+00:00)

Cosmos 1536 - Pass Details

Date: 12 May 2021
Orbit: 539 x 559 km, 82.5° (Epoch: 23 June)

Event Time Altitude Azimuth Distance (km) Brightness Sun altitude
Rises 20:59:01 0° 350° (N) 2,749 7.7 -16.2°
Reaches altitude 10° 21:01:13 10° 351° (N) 1,846 6.6 -16.4°
Maximum altitude 21:05:17 87° 79° (E) 559 2.7 -16.7°
Enters shadow 21:06:58 34° 169° (S) 916 3.4 -16.8°
